This is the latest recevied weather packets stored in our database for station/object N7ZAP. If no packets are shown the sender has not sent any weather packets the latest 10 day(s).
| Time | Temp. | Humidity | Pressure | Rain* | Wind** | Luminosity | Snow |
|---|---|---|---|---|---|---|---|
| 1777773806 | 16.11° C | 39% | 1020.9 hPa | 0 mm | - | - | - |
| 1777773502 | 16.11° C | 38% | 1021 hPa | 0 mm | - | - | - |
| 1777773199 | 16.67° C | 38% | 1020.9 hPa | 0 mm | - | - | - |
| 1777772895 | 16.67° C | 38% | 1020.6 hPa | 0 mm | - | - | - |
| 1777772593 | 16.67° C | 37% | 1020.7 hPa | 0 mm | - | - | - |
| 1777772290 | 17.22° C | 36% | 1020.5 hPa | 0 mm | - | - | - |
| 1777771988 | 17.22° C | 36% | 1020.6 hPa | 0 mm | - | - | - |
| 1777771685 | 17.78° C | 34% | 1020.6 hPa | 0 mm | - | - | - |
| 1777771382 | 18.33° C | 34% | 1020.6 hPa | 0 mm | - | - | - |
| 1777771079 | 18.33° C | 32% | 1020.7 hPa | 0 mm | - | - | - |
| 1777770775 | 18.89° C | 33% | 1020.6 hPa | 0 mm | - | - | - |
| 1777770472 | 18.89° C | 31% | 1020.4 hPa | 0 mm | - | - | - |
| 1777770169 | 18.89° C | 31% | 1020.5 hPa | 0 mm | - | - | - |
| 1777769866 | 18.89° C | 31% | 1020.2 hPa | 0 mm | - | - | - |
| 1777769563 | 18.89° C | 31% | 1020.5 hPa | 0 mm | - | - | - |
| 1777769259 | 18.89° C | 31% | 1020.4 hPa | 0 mm | - | - | - |
| 1777768958 | 19.44° C | 31% | 1020.4 hPa | 0 mm | - | - | - |
| 1777768655 | 19.44° C | 31% | 1020.5 hPa | 0 mm | - | - | - |
| 1777768352 | 18.89° C | 31% | 1020.5 hPa | 0 mm | - | - | - |
| 1777768048 | 19.44° C | 30% | 1020.5 hPa | 0 mm | - | - | - |
| 1777767745 | 20° C | 30% | 1020.5 hPa | 0 mm | - | - | - |
| 1777767441 | 20° C | 30% | 1020.7 hPa | 0 mm | - | - | - |
| 1777767138 | 20° C | 30% | 1020.4 hPa | 0 mm | - | - | - |
| 1777766836 | 19.44° C | 30% | 1020.5 hPa | 0 mm | - | - | - |
| 1777766533 | 19.44° C | 30% | 1020.5 hPa | 0 mm | - | - | - |
* Rain latest hour (hover to see other rain measurements)
** Current wind speed in m/s (hover to see current wind gust speed)